Williston, ND

8:31 AM CDT on April 24, 2017 (GMT -0500)
Sloulin International

Weather History for KISN - January, 2013

Change the Weather History Date:

Wednesday, January 2, 2013

  Actual Average Record
Temperature  
Mean Temperature 20 °F 11 °F  
Max Temperature 28 °F 21 °F 48 °F (1963)
Min Temperature 12 °F 0 °F -32 °F (1928)
Degree Days  
Heating Degree Days 45 54  
Month to date heating degree days 108  
Since 1 July heating degree days 3855  
Moisture  
Dew Point 19 °F    
Average Humidity 86    
Maximum Humidity 93    
Minimum Humidity 74    
Precipitation  
Precipitation 0.02 in 0.02 in 0.25 in (1899)
Month to date precipitation 0.04  
Year to date precipitation 0.04  
Sea Level Pressure  
Sea Level Pressure 30.17 in    
Wind  
Wind Speed 18 mph (NW)    
Max Wind Speed 23 mph    
Max Gust Speed 30 mph    
Visibility 9 miles    
Events Snow    
T = Trace of Precipitation, MM = Missing Value Source: NWS Daily Summary

Daily Weather History Graph

Daily Weather History Graph

Search for Another Location

Airport or City:

Trip Planner

Search our weather history database for the weather conditions in past years. The results will help you decide how hot, cold, wet, or windy it might be!

Date:

Astronomy

Jan. 02, 2013 Rise Set
Actual Time 8:45 AM CST 5:12 PM CST
Civil Twilight 8:08 AM CST 5:49 PM CST
Nautical Twilight 7:29 AM CST 6:28 PM CST
Astronomical Twilight 6:51 AM CST 7:06 PM CST
Moon 11:16 PM CST (1/2) 11:02 AM CST (1/2)
Length of Visible Light 9h 40m
Length of Day
8h 27m
Waning Gibbous, 75% of the Moon is Illuminated
Jan 2
Waning Gibbous
Jan 4
Last Quarter
Jan 11
New
Jan 18
First Quarter
Jan 26
Full

Hourly Weather History & Observations

Time (CST) Temp. Windchill Dew Point Humidity Pressure Visibility Wind Dir Wind Speed Gust Speed Precip Events Conditions
12:52 AM 28.0 °F 15.7 °F 26.1 °F 92% 30.07 in 10.0 mi WNW 17.3 mph - 0.01 in   Overcast
1:11 AM 28.4 °F 15.8 °F 26.6 °F 93% 29.96 in 10.0 mi WNW 18.4 mph - N/A   Overcast
1:16 AM 28.4 °F 15.4 °F 26.6 °F 93% 29.96 in 10.0 mi NW 19.6 mph - N/A   Overcast
1:31 AM 28.4 °F 15.1 °F 26.6 °F 93% 29.96 in 10.0 mi WNW 20.7 mph - N/A   Overcast
1:38 AM 28.4 °F 15.1 °F 26.6 °F 93% 29.96 in 10.0 mi WNW 20.7 mph - N/A   Overcast
1:52 AM 28.0 °F 15.7 °F 26.1 °F 92% 30.06 in 10.0 mi WNW 17.3 mph - N/A   Overcast
2:50 AM 28.4 °F 16.2 °F 24.8 °F 86% 29.97 in 10.0 mi WNW 17.3 mph - 0.01 in   Overcast
2:52 AM 28.0 °F 15.7 °F 25.0 °F 88% 30.06 in 10.0 mi WNW 17.3 mph - 0.01 in   Overcast
3:52 AM 27.0 °F 13.9 °F 24.1 °F 89% 30.07 in 10.0 mi WNW 18.4 mph - N/A   Overcast
4:52 AM 27.0 °F 12.8 °F 23.0 °F 85% 30.07 in 7.0 mi WNW 21.9 mph 28.8 mph 0.00 in Snow Light Snow
5:52 AM 25.0 °F 10.6 °F 21.0 °F 85% 30.06 in 10.0 mi WNW 20.7 mph 26.5 mph 0.00 in   Mostly Cloudy
6:52 AM 24.1 °F 9.8 °F 19.9 °F 84% 30.06 in 10.0 mi West 19.6 mph - N/A   Overcast
7:52 AM 24.1 °F 9.0 °F 19.9 °F 84% 30.08 in 9.0 mi WNW 21.9 mph - 0.00 in   Overcast
7:57 AM 24.8 °F 10.0 °F 19.4 °F 80% 29.98 in 10.0 mi WNW 21.9 mph 27.6 mph N/A   Overcast
8:23 AM 23.0 °F 7.6 °F 19.4 °F 86% 29.98 in 10.0 mi WNW 21.9 mph - N/A   Overcast
8:34 AM 23.0 °F 8.7 °F 19.4 °F 86% 29.98 in 8.0 mi WNW 18.4 mph 26.5 mph 0.00 in Snow Light Snow
8:52 AM 23.0 °F 7.6 °F 19.4 °F 86% 29.99 in 10.0 mi WNW 21.9 mph - N/A   Overcast
9:52 AM 24.1 °F 9.0 °F 21.0 °F 88% 30.12 in 10.0 mi NW 21.9 mph 28.8 mph N/A   Overcast
10:19 AM 24.8 °F 9.6 °F 21.2 °F 86% 30.03 in 1.8 mi NW 23.0 mph 29.9 mph 0.00 in Snow Light Snow
10:32 AM 24.8 °F 10.7 °F 21.2 °F 86% 30.04 in 3.0 mi NW 19.6 mph - 0.00 in Snow Light Snow
10:52 AM 25.0 °F 10.6 °F 21.0 °F 85% 30.15 in 9.0 mi NW 20.7 mph - 0.00 in   Overcast
11:52 AM 24.1 °F 9.8 °F 19.0 °F 81% 30.19 in 10.0 mi NNW 19.6 mph - N/A   Overcast
12:49 PM 23.0 °F 8.3 °F 19.4 °F 86% 30.13 in 9.0 mi NNW 19.6 mph 28.8 mph N/A   Overcast
12:52 PM 23.0 °F 7.6 °F 19.0 °F 85% 30.22 in 10.0 mi NNW 21.9 mph - N/A   Overcast
1:19 PM 23.0 °F 8.0 °F 19.4 °F 86% 30.12 in 10.0 mi NNW 20.7 mph - N/A   Overcast
1:52 PM 23.0 °F 8.0 °F 19.9 °F 88% 30.23 in 10.0 mi NNW 20.7 mph - N/A   Overcast
2:12 PM 23.0 °F 9.6 °F 19.4 °F 86% 30.14 in 1.8 mi NNW 16.1 mph - 0.00 in Snow Light Snow
2:23 PM 23.0 °F 9.6 °F 19.4 °F 86% 30.15 in 3.0 mi NNW 16.1 mph - 0.00 in Snow Light Snow
2:28 PM 23.0 °F 10.1 °F 19.4 °F 86% 30.15 in 9.0 mi NNW 15.0 mph - 0.00 in   Overcast
2:52 PM 21.9 °F 7.8 °F 19.0 °F 89% 30.26 in 9.0 mi NNW 17.3 mph - 0.00 in   Overcast
3:50 PM 21.2 °F 7.3 °F 19.4 °F 93% 30.19 in 9.0 mi NNW 16.1 mph - 0.00 in Snow Light Snow
3:52 PM 21.0 °F 6.6 °F 18.0 °F 88% 30.29 in 9.0 mi NNW 17.3 mph - 0.00 in   Overcast
4:52 PM 21.0 °F 7.6 °F 17.1 °F 85% 30.32 in 10.0 mi NNW 15.0 mph - N/A   Overcast
5:15 PM 19.4 °F 5.5 °F 15.8 °F 86% 30.22 in 10.0 mi NNW 15.0 mph - N/A   Overcast
5:40 PM 19.4 °F 7.2 °F 15.8 °F 86% 30.23 in 10.0 mi NW 11.5 mph - N/A   Overcast
5:46 PM 19.4 °F 6.0 °F 15.8 °F 86% 30.24 in 10.0 mi NW 13.8 mph - N/A   Overcast
5:52 PM 19.0 °F 5.6 °F 15.1 °F 85% 30.35 in 10.0 mi NW 13.8 mph - N/A   Overcast
5:58 PM 17.6 °F 2.2 °F 15.8 °F 93% 30.24 in 10.0 mi NW 17.3 mph - N/A   Overcast
6:09 PM 17.6 °F 3.7 °F 14.0 °F 86% 30.25 in 10.0 mi NNW 13.8 mph - N/A   Overcast
6:40 PM 17.6 °F 5.0 °F 12.2 °F 79% 30.26 in 10.0 mi NNW 11.5 mph - N/A   Mostly Cloudy
6:52 PM 17.1 °F 5.0 °F 12.9 °F 84% 30.38 in 10.0 mi NW 10.4 mph - N/A   Mostly Cloudy
7:05 PM 15.8 °F 3.4 °F 12.2 °F 86% 30.27 in 10.0 mi NNW 10.4 mph - N/A   Scattered Clouds
7:24 PM 15.8 °F 5.1 °F 12.2 °F 86% 30.27 in 10.0 mi NW 8.1 mph - N/A   Mostly Cloudy
7:52 PM 16.0 °F 10.4 °F 12.0 °F 84% 30.38 in 10.0 mi NW 3.5 mph - N/A   Overcast
8:52 PM 17.1 °F 7.6 °F 14.0 °F 88% 30.39 in 10.0 mi West 6.9 mph - N/A   Overcast
9:52 PM 17.1 °F 3.0 °F 12.0 °F 81% 30.40 in 8.0 mi NW 13.8 mph - 0.00 in Snow Light Snow
10:52 PM 17.1 °F 8.7 °F 12.9 °F 84% 30.39 in 10.0 mi NW 5.8 mph - 0.00 in   Overcast
11:52 PM 17.1 °F 11.7 °F 14.0 °F 88% 30.38 in 10.0 mi SW 3.5 mph - N/A   Overcast